GFSCGP_700_spd_219.txt.gz
Wind_Speed
23 24 28 25 23 21 10 12 11 19 13 12 8 8 15 14 12 12 13 14 16 19 20 19 19 19 19 19 19 20 19 17 16 17 17 16 15 14 12 12 10 8 7 7
29 34 30 24 24 23 15 16 10 8 5 8 8 8 7 13 15 14 15 16 17 19 22 21 20 19 19 21 21 20 20 20 18 18 19 15 14 15 12 12 9 7 6 5
38 34 28 27 27 22 22 20 15 10 8 11 9 10 12 13 14 16 16 16 18 20 23 22 20 18 18 20 21 20 20 21 21 21 22 27 24 22 17 13 9 7 5 4
41 36 30 31 29 27 24 21 18 11 9 14 13 16 15 16 14 16 19 19 19 21 23 22 20 20 20 19 21 22 22 22 22 22 25 26 25 20 17 14 11 7 6 5
45 40 39 34 34 29 28 20 21 17 15 16 14 13 12 15 13 14 20 21 21 22 24 25 19 23 21 19 20 22 23 23 24 24 28 29 28 22 21 17 12 8 6 4
41 38 38 40 31 31 26 23 18 20 22 20 22 15 15 14 13 14 17 21 20 21 23 25 24 21 25 24 21 23 24 24 24 26 29 33 30 28 23 19 14 10 7 5
38 42 40 38 38 30 32 29 21 16 17 16 23 20 21 5 7 8 15 18 18 18 21 25 30 28 26 30 27 25 25 26 23 26 32 34 32 31 27 21 16 13 10 8
39 36 44 38 42 39 37 35 29 20 14 19 25 23 23 14 9 8 9 11 11 15 20 26 30 31 27 30 31 29 26 27 24 25 33 36 35 32 28 23 19 15 13 11
37 41 37 41 40 37 39 39 35 32 31 21 24 28 25 12 15 14 11 13 10 11 17 25 31 34 31 31 33 33 30 28 27 26 33 37 37 34 31 27 22 18 16 13
33 29 40 43 35 39 42 34 35 36 23 22 25 16 16 18 20 20 15 14 6 9 10 22 28 33 33 33 32 35 33 30 29 28 33 37 39 37 34 30 25 22 19 16
26 20 27 34 47 41 40 43 34 34 40 20 17 22 22 10 10 10 10 16 3 7 7 14 24 30 33 31 34 33 36 33 32 31 33 36 41 39 38 34 29 26 22 19
35 15 28 39 32 37 36 42 41 27 31 35 33 24 19 19 19 20 9 9 2 8 7 8 20 26 30 31 33 32 36 36 33 33 33 36 39 42 41 38 33 30 26 23
23 30 27 29 30 29 39 36 39 39 31 35 24 33 16 11 12 8 6 10 19 8 6 7 15 23 27 27 33 34 31 37 35 35 35 36 39 44 43 41 38 34 30 27
19 23 31 23 26 35 32 34 35 40 38 33 32 25 23 18 14 10 9 3 13 14 9 6 9 20 26 28 30 32 35 33 39 39 38 38 41 43 44 44 42 39 35 32
15 20 22 34 11 12 33 32 34 33 37 32 30 31 25 18 12 10 5 9 6 10 24 7 9 13 21 26 25 29 31 32 35 40 40 40 40 42 44 45 46 43 40 36
12 12 12 22 14 14 18 20 35 32 29 30 28 26 21 17 11 8 8 9 10 12 27 15 9 14 14 21 26 27 25 27 31 36 39 40 41 42 43 45 47 48 45 42
10 10 14 20 19 16 18 23 21 20 21 23 27 24 21 13 6 7 9 10 11 14 24 32 19 13 15 14 25 27 28 27 27 28 31 38 42 42 43 44 47 49 50 48
10 11 14 21 16 13 15 14 27 24 15 14 6 13 16 18 16 7 13 22 21 20 22 24 20 17 14 14 19 28 30 30 30 28 27 28 36 40 43 45 46 49 50 52
12 14 16 18 16 15 11 9 11 9 14 15 19 19 18 20 14 9 22 26 24 22 22 23 19 19 19 16 18 23 29 31 30 30 30 28 28 35 40 46 47 47 50 51
13 13 15 20 22 16 12 8 17 11 7 15 15 16 18 16 14 18 21 28 28 28 29 24 21 20 22 20 18 21 23 29 29 32 32 33 34 32 35 40 44 48 49 49
15 15 21 21 17 9 2 2 12 14 8 17 14 14 13 12 14 19 22 25 28 29 30 28 26 21 24 23 20 21 23 25 25 28 35 37 37 38 37 33 37 44 48 50
15 12 17 20 21 14 4 6 9 12 10 10 8 9 13 12 10 16 20 21 21 24 27 28 28 27 25 26 25 23 25 25 27 29 30 36 41 41 43 40 36 38 43 47
5 1 2 0 3 1 5 2 7 10 10 4 6 8 12 11 10 12 14 18 20 23 24 21 26 30 27 29 29 26 27 28 28 27 28 32 41 47 45 45 39 35 38 43
13 8 6 2 4 3 5 6 4 5 7 5 4 9 11 14 17 16 15 14 14 19 25 24 18 20 24 26 28 30 32 31 30 28 27 31 33 41 47 46 42 38 38 41
3 1 9 13 10 7 6 14 18 8 11 11 9 7 10 13 14 16 18 14 15 16 20 24 16 17 21 23 26 30 35 32 31 28 26 26 29 32 37 39 42 42 36 38
9 10 11 7 6 8 11 16 16 18 16 17 13 12 14 12 16 14 14 15 15 14 16 10 14 14 14 20 24 29 32 32 32 32 27 27 28 30 34 36 41 39 36 37

GFSCGP_700_spd_222.txt.gz
Wind_Speed
25 23 27 24 23 23 19 8 9 11 5 9 11 7 15 23 24 18 18 21 21 21 22 21 19 18 18 18 18 18 18 16 15 15 19 19 17 16 13 13 9 8 7 7
28 34 28 24 23 25 20 15 13 5 5 14 5 21 10 16 26 21 20 22 22 22 24 23 20 17 17 18 18 19 18 18 18 17 18 14 13 16 13 12 8 6 5 6
34 34 26 27 26 26 26 24 12 7 9 18 18 24 22 24 17 19 16 19 21 24 25 23 20 19 16 15 17 17 18 19 18 20 21 24 17 17 14 10 8 5 5 6
36 31 31 28 30 26 27 20 17 20 9 11 12 14 29 23 22 22 18 21 22 24 24 22 19 18 15 13 17 18 18 19 20 20 22 25 23 19 13 11 8 5 4 5
43 36 34 36 30 28 29 21 18 19 14 12 10 13 11 23 18 22 24 23 21 24 25 24 19 21 21 18 16 19 20 19 21 20 22 27 25 19 15 12 8 5 3 5
38 33 35 36 32 29 25 24 19 18 20 19 18 18 21 33 22 25 19 25 23 23 24 25 21 20 21 22 19 21 23 22 21 22 22 27 25 22 17 15 10 7 5 4
37 39 36 35 36 31 31 26 17 17 17 14 21 20 12 20 5 16 23 24 22 23 23 25 27 23 22 24 23 22 24 24 23 25 25 28 28 27 25 19 13 10 9 8
37 38 40 37 41 38 35 34 27 13 13 18 22 23 18 15 19 6 13 19 20 20 22 24 29 25 23 25 25 24 23 25 24 24 26 29 31 28 25 21 17 12 9 8
38 44 29 38 36 38 39 36 34 34 30 18 23 26 22 21 13 14 14 13 12 24 18 21 26 30 24 25 29 26 22 25 26 23 28 31 34 32 27 22 20 15 13 11
38 33 37 34 37 38 43 31 35 37 21 14 27 16 16 5 18 19 17 16 11 13 9 13 27 27 29 26 28 29 25 24 25 25 27 31 35 35 32 28 24 20 17 14
38 35 32 37 41 44 39 42 40 32 34 16 15 20 22 27 12 20 21 21 16 7 5 10 23 25 26 31 28 30 28 23 28 27 27 31 34 37 35 32 29 24 21 18
27 24 33 33 35 40 42 39 38 29 30 30 33 28 25 7 21 21 22 16 13 9 6 1 14 21 24 28 30 27 28 26 25 28 27 30 33 37 38 36 33 28 25 22
14 27 21 30 33 43 46 39 36 36 32 31 22 32 19 21 8 15 19 20 18 10 8 4 12 16 21 26 29 28 27 29 23 28 30 30 33 35 39 38 36 33 30 26
19 21 33 31 25 37 41 43 39 38 38 33 34 31 18 15 15 23 20 12 9 14 8 8 3 13 19 25 28 28 30 30 28 26 33 33 32 35 37 40 39 38 34 31
15 21 24 40 32 16 35 35 35 41 39 37 29 28 23 15 17 23 10 11 11 8 10 13 7 6 10 22 27 30 30 31 29 26 31 36 34 33 36 39 41 41 39 36
15 16 19 28 31 20 18 34 34 40 33 35 35 26 12 3 26 14 22 7 8 12 22 20 10 7 9 11 26 29 32 31 33 30 25 29 36 35 35 37 40 42 43 42
14 18 14 25 26 18 29 19 32 32 28 27 33 11 6 16 12 12 14 14 15 15 16 25 19 13 15 15 16 23 34 30 33 31 25 24 28 37 37 36 39 41 42 44
12 10 12 21 20 16 23 20 12 14 13 9 9 12 5 14 8 12 12 9 11 13 17 15 18 19 14 22 19 19 22 34 30 31 28 26 24 29 35 38 39 38 40 43
10 13 13 15 20 16 21 12 5 28 9 13 16 13 9 9 3 8 11 13 20 20 20 18 20 24 23 22 22 22 22 25 30 29 31 30 27 25 30 37 40 39 41 40
14 13 11 17 19 13 7 10 8 4 13 4 12 22 20 16 7 7 11 16 22 22 22 24 24 22 24 22 22 23 25 24 29 31 31 31 33 29 28 27 31 37 41 42
16 14 18 20 20 7 8 11 11 8 6 17 13 11 17 19 16 18 15 13 18 22 25 25 26 26 26 24 22 22 23 25 25 30 32 33 33 33 32 33 33 31 33 39
16 15 16 20 25 8 4 4 15 6 6 8 12 20 21 17 16 23 21 19 20 20 20 25 27 27 28 28 24 21 24 25 27 28 31 31 33 34 36 37 37 39 37 35
6 7 6 7 4 4 2 2 8 16 8 6 5 8 11 16 14 16 17 17 15 18 21 23 23 21 23 27 24 24 24 30 27 29 30 31 31 33 35 40 42 42 42 40
6 2 4 2 11 4 4 8 6 6 5 5 5 10 13 14 14 15 18 18 17 17 17 19 21 21 21 23 24 22 23 29 30 30 32 32 33 33 35 35 39 44 44 43
5 5 4 1 3 1 7 3 4 5 3 3 9 9 11 12 14 15 16 18 19 21 21 21 22 21 20 24 24 22 26 31 34 32 34 34 33 32 30 29 31 35 40 41
4 4 6 8 5 7 6 6 6 14 18 8 9 16 14 13 14 15 17 18 16 18 20 23 20 20 20 18 24 24 28 41 37 33 34 34 33 30 27 25 24 27 33 38

GFSCGP_700_spd_225.txt.gz
Wind_Speed
21 21 24 24 17 20 19 13 10 7 2 6 10 2 11 25 25 20 14 15 21 26 22 22 19 17 17 17 17 14 13 16 15 15 22 23 18 17 15 15 12 9 10 8
25 32 28 20 20 23 25 24 8 7 6 10 10 4 10 25 19 19 23 16 18 24 25 24 20 15 14 16 17 14 13 14 15 17 22 20 21 16 15 14 10 9 7 9
30 30 26 24 24 26 26 25 22 10 11 13 14 18 15 24 18 18 31 27 16 18 26 25 19 15 14 18 17 15 13 14 16 19 21 23 21 18 16 13 10 7 7 8
33 29 28 30 28 25 29 21 21 12 23 12 24 12 18 25 30 29 17 36 22 15 24 24 20 15 13 16 20 18 16 16 17 17 19 22 19 18 17 13 10 8 7 6
37 33 30 32 31 25 28 25 22 24 21 9 23 18 18 20 32 25 27 30 19 16 17 17 19 16 15 17 20 20 20 19 20 18 17 21 22 21 17 14 10 9 8 5
34 27 33 34 30 30 26 27 26 19 11 9 22 34 15 25 27 26 26 35 23 15 17 16 15 14 16 16 19 22 22 22 21 22 20 20 22 23 21 17 13 9 7 7
30 35 34 32 31 32 31 30 17 6 2 7 22 24 15 20 17 23 29 35 30 21 18 14 19 18 18 15 17 20 23 24 21 23 22 20 21 23 23 19 14 10 7 7
32 29 36 33 38 35 32 30 20 5 3 13 21 21 13 18 25 17 22 29 34 25 25 16 11 8 13 14 14 19 21 23 24 23 24 22 26 26 22 19 16 12 10 9
19 37 24 34 33 31 37 36 27 29 21 12 17 22 10 21 21 15 27 24 37 28 31 24 16 14 10 7 7 14 20 22 25 23 24 24 27 27 23 21 18 13 13 13
31 36 22 31 31 36 35 34 26 25 7 6 17 8 4 29 14 16 16 26 38 16 32 25 18 14 15 13 11 10 16 22 24 26 23 25 27 29 27 23 21 17 14 11
33 26 33 25 37 37 39 37 32 23 23 6 3 15 19 17 13 6 2 20 24 26 15 27 27 23 21 17 13 14 12 20 25 27 26 24 28 30 32 28 24 21 18 15
33 36 30 41 29 29 38 39 31 21 27 15 13 17 21 23 23 26 6 29 22 23 21 19 22 22 24 20 16 17 14 17 24 25 26 26 26 31 33 32 30 27 22 19
17 16 25 34 33 31 28 40 40 28 33 33 9 7 19 22 14 25 15 23 20 24 18 19 14 15 22 15 15 16 13 13 20 24 25 26 26 30 33 34 33 32 28 25
10 15 6 12 19 21 22 25 42 37 30 30 32 21 21 26 19 17 26 17 9 16 18 15 13 14 15 15 16 15 15 14 12 18 22 26 27 28 30 32 35 35 33 30
10 15 16 18 21 22 26 19 38 40 33 23 23 20 11 18 25 27 34 18 18 17 16 15 21 16 15 15 14 15 18 20 18 14 17 22 26 27 28 32 35 36 37 35
10 9 18 23 28 21 24 31 20 46 32 29 25 13 13 32 36 31 22 22 27 22 18 18 15 14 20 22 23 19 18 22 23 21 16 17 22 29 29 30 34 36 38 38
11 11 15 20 23 19 23 21 9 24 26 25 13 24 20 31 35 31 30 29 23 22 15 18 15 16 16 13 11 18 20 21 27 27 21 20 21 23 29 30 32 35 36 38
5 9 6 8 12 5 6 9 2 21 18 21 26 26 31 37 35 36 26 27 22 17 14 8 12 20 15 16 15 13 17 21 25 25 26 22 21 21 24 30 34 34 34 36
5 2 5 6 13 10 3 7 13 13 16 20 23 26 25 24 34 37 24 22 27 21 16 14 12 15 20 21 15 19 17 21 26 25 24 27 28 23 23 27 31 34 36 36
4 5 7 11 4 1 8 3 14 6 13 9 10 17 20 22 22 21 20 24 23 21 19 18 17 20 20 21 23 22 22 27 27 28 26 26 29 29 24 21 24 27 33 37
10 10 14 15 8 1 8 21 8 4 6 2 3 9 15 15 14 13 12 12 13 15 18 20 21 23 26 26 29 33 29 26 28 27 25 27 29 30 29 28 27 27 28 30
15 9 17 14 13 1 3 13 6 9 4 1 2 2 6 4 4 6 7 9 10 12 16 20 23 28 30 28 28 33 30 29 28 26 24 25 28 30 31 31 30 31 33 35
7 3 10 2 11 8 8 3 5 6 14 4 3 4 3 1 6 7 9 8 10 11 14 18 21 26 28 29 29 28 33 31 30 27 26 24 28 29 29 32 34 35 36 38
11 8 15 12 14 14 20 14 7 4 8 14 12 7 6 6 7 12 13 14 13 13 15 18 19 24 24 24 27 28 28 33 31 26 26 28 28 30 32 32 34 35 37 38
6 15 19 21 19 14 17 17 7 2 5 4 4 13 11 15 15 19 22 20 20 19 18 18 18 19 20 20 21 25 29 31 33 31 28 29 30 32 33 34 35 36 35 35
5 8 6 7 7 12 14 11 11 14 14 11 9 11 14 16 20 21 23 24 23 22 21 20 20 19 19 21 23 23 27 32 35 36 32 29 32 36 36 37 37 36 33 31

GFSCGP_700_spd_228.txt.gz
Wind_Speed
26 20 21 27 18 16 11 17 17 12 10 9 7 7 24 12 16 18 22 18 16 19 18 17 16 13 14 17 16 15 13 15 14 13 23 19 21 20 19 16 13 10 10 12
27 26 24 27 22 18 17 21 12 12 7 5 3 4 19 31 23 16 17 19 22 21 25 21 19 15 16 17 16 16 16 14 15 15 22 20 25 22 17 14 13 10 9 10
32 30 21 22 22 19 22 21 15 19 13 11 11 9 8 25 26 24 21 20 22 23 29 25 20 17 17 20 18 17 17 15 16 21 23 22 23 23 20 14 11 10 10 9
34 31 27 26 25 21 23 16 13 14 4 10 12 4 8 19 24 19 21 24 23 27 29 27 21 17 17 19 20 19 18 17 17 19 22 20 22 23 20 15 10 8 8 7
36 32 33 29 28 21 26 17 17 17 12 18 13 6 11 14 29 25 14 21 26 20 25 24 20 16 15 19 21 21 21 21 20 18 19 21 21 22 19 15 12 8 7 6
27 26 30 33 30 28 27 26 23 17 16 15 29 16 16 21 20 18 22 19 20 20 21 24 17 15 15 17 21 23 24 24 22 21 19 20 25 25 23 18 14 12 9 7
29 32 28 27 30 29 27 24 12 4 3 8 21 20 27 22 24 15 17 22 23 19 18 20 20 19 19 20 21 22 25 27 24 23 22 20 20 27 24 21 17 14 10 8
26 29 32 33 34 32 29 24 16 6 5 19 16 13 30 21 29 23 12 14 25 25 18 17 12 14 13 17 21 21 22 26 27 23 22 21 21 25 26 24 21 16 13 10
8 18 17 33 33 27 30 28 26 20 15 6 9 10 11 11 25 25 24 18 21 33 24 16 15 13 11 10 15 19 20 22 25 25 23 23 22 24 25 25 22 19 16 13
28 24 14 26 29 35 34 28 15 18 5 5 8 4 3 11 21 28 25 23 26 24 24 26 27 21 15 11 8 11 19 20 21 23 23 24 24 25 25 24 23 20 18 17
25 26 17 22 30 35 32 32 31 23 16 8 3 9 8 14 11 11 14 34 24 35 26 14 25 29 20 15 10 7 9 20 22 22 24 23 26 26 28 26 24 21 20 20
31 24 29 29 25 27 23 27 27 26 19 11 9 11 12 19 20 12 7 12 31 43 44 29 22 22 23 20 16 8 7 7 17 20 22 24 25 28 29 29 27 26 23 20
9 19 20 21 26 27 31 24 20 26 25 29 16 9 9 22 29 18 12 4 17 32 23 17 23 29 22 23 21 14 8 3 8 20 22 24 27 28 30 30 30 30 28 25
2 9 5 22 20 12 13 24 12 19 31 24 31 30 14 19 31 29 25 25 20 22 22 19 22 27 20 24 20 15 11 5 1 7 19 24 27 28 27 29 30 33 32 30
6 8 8 10 9 7 8 10 14 12 13 33 27 31 22 25 17 25 28 31 24 12 13 14 17 19 19 19 20 17 13 7 5 5 6 18 22 26 28 28 29 31 35 35
5 9 10 18 17 11 9 11 13 15 14 19 26 21 25 30 22 24 27 33 30 25 17 17 17 16 19 21 24 24 23 17 12 11 10 7 12 20 26 28 28 31 32 36
9 9 6 8 15 9 7 11 9 5 7 24 28 25 24 36 35 32 33 28 28 29 25 17 16 14 15 15 19 22 21 22 21 16 12 14 13 15 21 26 29 31 32 33
6 7 4 2 6 3 9 4 5 9 11 25 33 34 35 34 39 40 36 35 34 29 24 21 20 19 18 17 15 14 14 17 14 13 17 17 17 17 18 23 28 32 33 34
6 8 5 5 7 14 9 1 10 16 19 29 36 38 43 41 39 31 28 31 29 28 20 20 21 23 22 21 21 22 22 22 22 19 18 17 21 19 21 23 25 29 34 37
8 5 8 6 5 3 8 8 3 8 6 10 22 35 36 42 41 37 36 33 36 27 21 18 17 16 18 21 21 21 22 25 27 24 25 22 21 25 24 22 23 26 32 35
4 2 3 6 5 6 4 2 6 1 3 8 4 27 30 30 33 33 35 25 31 27 21 20 19 18 19 17 18 21 24 24 25 25 27 29 25 25 30 23 24 27 29 32
7 3 5 3 4 3 5 2 5 11 8 2 4 9 25 25 16 26 23 20 17 17 16 15 16 18 20 21 23 23 24 29 33 31 31 35 27 27 25 33 27 27 31 33
5 4 4 4 13 16 16 13 11 5 7 2 5 7 11 10 15 17 21 21 23 19 20 20 21 23 23 25 27 29 30 30 34 36 36 35 33 29 29 29 29 30 32 34
14 12 23 20 22 25 25 25 19 11 8 7 6 4 7 12 15 14 13 15 16 17 19 22 24 25 25 26 27 30 33 33 32 33 34 36 35 33 29 30 31 31 30 30
10 14 15 23 22 24 23 23 24 21 17 12 16 14 5 7 7 9 10 9 9 10 12 13 17 17 17 20 25 29 32 33 31 31 32 36 37 37 33 30 29 31 32 32
4 8 12 13 13 17 19 15 17 19 17 14 12 21 21 12 12 9 7 9 11 14 15 16 17 19 20 19 18 19 24 28 30 32 31 34 38 38 38 34 32 32 32 33

GFSCGP_700_spd_231.txt.gz
Wind_Speed
30 25 27 24 17 11 11 9 12 17 12 7 4 4 13 11 26 21 16 18 19 20 16 14 12 12 15 17 16 13 14 16 14 16 21 21 21 19 17 15 14 12 10 12
35 34 28 25 18 14 12 12 11 14 9 7 5 6 11 16 23 19 17 19 20 19 19 18 15 12 14 15 16 16 14 13 15 16 19 20 19 18 17 15 13 10 8 6
32 33 30 27 20 18 16 16 12 13 17 16 9 12 14 12 20 23 23 21 19 21 21 20 18 15 13 17 18 17 16 14 16 16 20 19 22 21 16 14 12 10 10 10
33 30 29 31 26 19 21 19 12 14 14 9 4 4 8 15 12 18 19 20 21 23 22 22 17 17 15 14 19 19 17 18 19 17 17 19 20 19 19 16 14 11 10 10
34 32 33 32 29 22 30 18 15 16 17 16 8 5 11 13 18 19 24 24 21 20 20 21 19 16 12 15 19 21 21 20 22 19 18 19 18 22 21 18 15 13 11 10
33 27 26 34 28 25 27 18 16 12 16 12 17 10 16 13 16 20 19 20 19 25 21 18 15 17 16 16 19 23 25 23 22 21 20 19 19 24 21 18 15 11 10 9
24 27 30 22 34 30 27 18 3 2 3 7 11 13 33 14 14 15 23 20 18 18 16 17 17 20 21 21 21 23 26 26 23 21 20 19 20 26 22 19 16 11 9 8
28 26 32 27 33 35 30 25 11 6 4 5 12 11 24 18 17 18 21 21 22 18 12 14 17 21 21 21 21 22 26 26 24 22 22 21 21 23 25 21 18 15 13 11
13 19 20 36 32 29 28 25 20 15 13 2 8 18 18 11 17 20 25 22 27 25 18 14 13 18 20 22 22 22 22 26 25 22 20 22 22 20 27 23 20 17 16 14
25 9 12 23 34 32 29 14 13 15 6 5 8 11 11 9 10 20 27 29 23 25 25 22 15 14 16 19 18 19 22 23 25 25 23 21 22 20 25 27 23 21 18 16
24 26 19 21 32 37 34 28 21 15 10 7 2 10 21 19 13 18 28 29 27 21 23 29 20 19 15 18 19 17 19 23 25 26 25 24 22 21 23 26 27 24 21 19
21 15 26 24 23 22 30 29 25 25 14 10 12 19 10 16 18 19 20 21 21 23 25 29 31 24 25 18 17 14 17 21 25 24 25 26 24 23 23 25 28 28 24 21
6 15 21 21 23 26 26 24 21 20 20 27 13 8 9 13 23 23 19 14 17 22 22 27 25 19 23 25 23 16 13 14 20 26 25 25 28 25 23 24 27 29 28 26
4 5 19 27 24 15 14 19 18 15 19 23 27 25 19 16 22 24 22 17 20 16 26 29 30 26 28 26 19 24 18 15 13 20 24 25 25 27 25 23 26 29 31 31
3 8 5 13 22 15 8 11 15 15 7 22 25 25 23 22 20 26 22 21 21 18 18 35 29 24 24 24 20 23 25 20 15 11 15 20 20 22 26 27 25 27 31 34
5 5 7 6 9 8 11 6 3 6 11 11 23 28 25 25 27 25 16 22 20 21 19 29 24 25 27 22 20 24 24 25 23 16 13 12 12 14 19 23 26 28 28 32
4 5 9 7 6 8 8 9 9 10 8 16 25 30 27 32 36 31 26 23 20 21 20 19 19 19 20 20 20 22 23 23 22 21 21 17 16 14 13 13 18 26 29 29
5 6 10 7 11 4 8 6 6 9 9 18 26 29 30 39 40 37 35 32 33 26 24 26 17 15 17 16 15 16 17 20 21 18 17 20 22 21 19 18 18 21 24 30
6 6 8 6 6 13 11 8 7 7 3 16 22 27 37 44 42 39 39 38 34 32 27 26 23 21 20 19 18 16 13 14 14 15 13 16 20 24 25 27 25 23 24 27
8 4 10 8 6 4 9 10 9 14 6 10 23 32 33 36 37 38 39 36 34 31 26 22 25 26 23 22 22 21 20 19 19 22 19 18 17 18 21 26 27 28 27 27
11 11 8 6 6 7 7 7 8 11 11 4 13 30 35 37 37 40 38 42 32 27 28 25 20 19 19 20 20 22 21 21 21 24 25 19 31 23 20 23 26 27 32 30
10 8 10 6 6 4 6 10 6 9 14 6 4 6 30 33 36 38 34 30 28 21 21 23 20 21 21 18 17 17 17 17 17 20 25 28 29 28 28 24 26 26 31 33
8 10 9 5 13 14 18 18 18 14 7 11 8 4 7 8 11 15 13 12 15 17 14 17 18 17 16 15 15 18 18 20 20 22 23 28 30 31 32 32 30 29 30 33
20 20 24 23 21 19 20 20 21 15 10 9 10 9 9 9 9 10 8 12 14 10 22 15 14 17 15 17 19 21 22 24 25 26 27 28 31 33 34 35 36 34 33 30
16 23 17 24 24 19 18 18 14 15 17 15 18 12 18 5 5 9 9 16 15 17 19 15 23 24 21 21 22 23 24 25 27 28 30 32 33 36 35 36 38 36 35 31
14 20 24 27 27 23 18 17 16 11 8 7 9 16 26 21 15 9 8 11 9 12 12 15 15 16 21 22 22 24 28 28 28 30 31 35 36 36 36 35 37 38 37 37

GFSCGP_700_spd_234.txt.gz
Wind_Speed
28 25 25 21 16 11 11 7 7 10 11 6 8 3 6 10 20 21 21 20 19 19 18 19 21 20 18 18 14 12 17 16 14 12 15 20 20 21 21 19 19 17 14 14
33 31 27 23 18 12 15 14 7 6 11 6 8 6 9 12 11 21 18 20 18 21 24 23 22 22 20 17 16 13 12 16 13 16 15 16 19 21 20 19 18 17 16 14
38 35 30 26 21 14 20 19 9 9 12 14 13 14 16 11 17 23 19 20 21 22 25 25 23 21 19 19 17 15 13 13 15 18 20 18 18 18 16 15 14 13 13 13
33 32 33 32 25 19 20 23 12 10 11 8 5 4 9 10 16 21 21 21 23 24 24 24 23 22 20 17 17 16 16 14 17 18 22 22 18 14 14 14 12 10 9 10
33 30 33 34 32 24 22 26 17 10 12 14 13 7 6 7 19 21 20 22 22 23 24 24 24 20 16 16 15 16 17 17 17 20 22 21 19 18 16 13 12 10 9 8
34 25 28 33 29 24 25 19 9 10 10 6 18 10 10 14 13 11 21 23 22 19 17 20 21 19 18 16 16 18 20 18 17 17 18 20 21 19 17 15 13 11 9 8
29 35 32 21 31 26 24 18 3 1 2 7 2 12 25 11 7 3 7 18 24 20 20 17 22 25 24 22 18 19 22 20 18 16 16 20 19 21 19 17 15 12 10 8
22 17 34 26 29 35 29 26 11 6 4 4 12 10 12 3 9 12 9 18 18 15 18 19 22 24 25 23 20 19 22 23 20 18 16 17 20 22 22 20 17 14 12 11
15 22 17 32 32 26 33 29 27 11 7 3 8 12 19 8 4 11 14 17 22 19 15 19 20 19 20 21 21 20 20 22 23 19 19 19 18 20 22 21 19 16 14 12
17 9 19 28 31 27 31 28 18 17 7 5 7 7 13 4 8 12 18 22 22 23 22 18 18 18 18 18 19 19 18 19 21 22 21 19 18 19 20 26 22 19 16 14
22 19 12 21 31 38 29 22 17 22 13 7 1 9 17 18 17 15 9 23 22 23 25 19 15 16 16 17 19 21 22 20 21 22 23 23 19 20 19 24 26 22 19 17
22 16 25 20 21 28 39 32 31 15 9 15 11 23 12 7 14 16 9 22 24 20 19 22 23 20 17 15 18 18 20 24 22 22 21 23 24 22 21 21 28 26 23 20
6 16 13 14 24 17 24 32 28 27 25 25 12 14 25 15 13 16 14 17 18 18 18 21 22 25 23 19 19 19 16 21 25 25 24 22 24 26 23 23 25 29 28 25
5 7 14 19 21 19 19 21 23 30 32 27 33 28 18 13 10 16 15 17 17 12 13 17 18 22 21 24 26 19 16 15 17 22 26 26 24 26 27 24 25 27 30 29
6 5 5 10 22 21 19 19 22 27 30 29 30 34 30 26 19 16 19 18 19 19 19 17 19 23 21 20 22 22 28 21 18 17 23 27 27 25 27 28 25 26 29 32
9 5 5 5 13 20 21 15 22 27 24 18 24 31 33 30 24 22 22 24 20 19 18 22 21 28 28 22 22 25 24 27 26 20 16 23 28 29 26 26 28 28 26 29
8 9 6 5 12 14 14 17 14 20 25 23 24 27 32 33 26 26 26 26 25 20 17 17 19 23 24 26 23 19 23 25 29 26 22 21 19 26 26 25 26 27 29 29
8 6 8 5 15 4 8 10 11 9 10 15 21 23 29 33 33 30 29 30 28 21 18 17 18 21 26 17 19 20 20 23 27 30 26 22 22 22 21 22 22 21 22 26
12 11 6 7 9 10 10 11 12 10 5 8 13 15 25 35 33 34 35 33 30 28 25 24 21 19 21 20 24 16 15 19 22 24 27 26 24 24 28 28 26 25 26 27
16 16 11 10 7 5 11 15 12 15 9 7 16 21 24 34 39 37 38 37 35 34 33 28 26 24 23 20 19 19 17 18 15 14 14 16 16 18 23 27 29 31 33 33
16 13 16 12 7 5 12 14 14 11 7 10 13 23 25 25 30 36 36 37 37 36 33 27 28 28 26 24 23 21 21 23 19 18 18 17 15 18 18 17 21 26 31 34
16 10 10 8 7 5 12 13 9 8 10 5 4 11 15 20 26 28 27 29 29 27 25 24 22 21 20 22 23 23 22 21 19 18 19 18 18 18 24 25 18 27 29 32
11 10 9 7 10 11 17 15 19 20 16 13 9 6 6 15 19 20 17 20 21 25 27 23 21 17 17 17 17 18 19 18 18 17 17 17 18 18 19 24 26 27 27 27
14 12 15 18 20 19 20 23 25 22 17 14 11 10 9 5 12 17 16 18 19 18 17 14 15 18 13 12 13 15 16 17 18 18 18 19 19 21 21 23 24 23 25 28
19 18 20 22 22 21 20 20 17 15 15 15 13 12 11 10 9 7 7 7 10 16 19 19 10 17 21 17 16 15 17 16 16 17 19 20 22 24 25 26 26 29 29 29
16 22 19 27 27 23 20 18 15 16 13 8 7 11 9 14 10 10 10 8 3 8 17 22 23 26 12 15 18 18 15 16 16 16 19 20 24 26 28 29 30 32 30 30

GFSCGP_700_spd_237.txt.gz
Wind_Speed
28 26 22 23 21 11 7 9 6 5 6 3 4 5 4 9 17 21 23 23 22 21 21 19 20 19 18 16 14 16 13 16 16 12 14 15 17 16 15 16 14 15 15 14
31 30 28 20 21 19 14 12 7 7 7 7 7 9 8 12 12 22 21 24 24 25 26 24 23 23 20 18 14 14 14 13 15 14 17 19 19 19 19 17 16 15 14 13
32 31 31 26 24 21 20 14 10 7 9 9 11 11 10 11 14 22 21 21 22 27 27 28 27 24 23 20 18 14 12 13 13 16 19 20 20 22 20 18 17 16 15 15
32 34 31 31 24 22 20 19 14 12 7 5 10 4 8 9 12 22 24 22 23 26 27 28 28 28 25 22 20 17 15 14 15 18 19 18 18 17 17 17 16 15 16 15
34 30 34 32 30 24 19 18 12 12 10 10 8 6 7 5 15 18 24 22 21 23 27 30 30 28 25 24 22 19 18 17 17 16 20 20 20 19 18 16 15 14 14 15
29 28 27 31 25 26 21 14 7 6 5 13 9 10 9 11 11 12 18 23 22 24 27 27 28 27 26 24 22 20 19 17 17 18 18 19 20 19 17 14 13 11 10 10
29 26 26 25 26 22 23 19 14 9 7 12 5 6 18 11 2 9 8 16 20 19 25 28 31 32 31 29 25 22 21 20 17 18 17 18 21 21 18 15 13 10 8 8
27 23 34 26 22 27 25 27 18 12 10 14 14 10 6 1 11 12 9 9 17 23 23 23 29 32 32 30 26 22 21 21 19 17 16 16 20 22 20 18 15 12 11 10
21 30 22 32 24 22 27 28 24 12 13 10 9 15 18 12 7 9 9 13 18 22 24 23 24 31 31 30 28 24 21 20 19 18 18 18 20 21 21 19 17 15 14 12
16 11 26 17 27 31 24 27 22 18 15 15 13 11 15 11 1 3 5 14 20 20 23 24 27 28 28 27 25 24 21 19 17 19 19 19 20 21 22 24 20 17 16 13
23 17 12 24 31 31 27 24 26 24 17 16 11 15 17 18 16 10 10 8 21 25 21 25 26 25 25 26 25 23 23 22 21 20 21 21 22 23 23 24 24 22 20 17
22 19 18 18 21 30 30 31 29 24 18 21 22 30 6 10 10 10 10 8 24 23 24 21 23 25 27 27 24 22 22 23 21 20 21 24 24 23 24 24 25 28 25 22
21 18 18 17 18 22 37 33 30 25 26 29 22 23 21 20 15 13 9 9 23 21 21 23 25 22 22 22 23 23 22 22 24 23 21 22 24 25 24 25 24 28 29 27
10 9 22 23 26 21 15 31 37 33 26 24 27 31 27 14 14 15 9 13 19 21 19 17 18 20 22 21 18 21 19 21 24 26 26 26 23 23 26 25 26 27 30 31
8 8 13 21 19 20 23 19 22 35 36 33 31 31 27 24 20 12 11 14 20 22 19 17 19 19 24 29 26 22 25 21 18 20 24 25 26 25 25 28 28 27 29 31
10 7 10 10 15 22 23 20 20 24 27 31 28 31 32 35 31 26 18 16 19 20 18 18 19 18 23 26 27 30 28 26 25 23 19 17 23 27 27 27 29 31 31 32
10 9 8 8 10 16 12 20 20 23 29 29 27 24 30 31 33 32 25 23 25 25 21 18 15 16 18 26 26 28 26 31 33 30 26 25 19 15 25 28 29 31 33 32
11 8 7 3 12 10 7 15 16 17 21 24 28 28 31 33 32 32 31 26 27 28 26 20 16 17 22 22 20 24 20 33 32 34 31 29 25 21 24 18 27 31 32 34
14 9 5 4 10 8 8 14 17 17 11 12 20 27 28 33 34 34 33 30 30 31 28 23 19 18 20 22 19 21 24 23 26 30 34 32 23 23 26 23 26 27 30 32
21 16 11 9 6 8 13 16 18 16 8 10 10 14 20 24 26 31 33 31 30 31 31 26 23 22 22 19 23 29 29 20 20 20 25 27 28 28 29 25 28 28 27 27
20 19 18 10 6 8 15 19 17 10 8 13 11 13 14 18 22 27 30 29 31 34 33 29 26 26 26 22 22 23 26 22 17 20 16 20 24 27 26 27 26 26 27 29
13 13 9 12 7 7 15 19 15 14 14 14 11 15 20 21 16 19 26 29 33 32 31 34 33 31 31 28 27 26 25 26 32 34 28 18 23 26 28 29 29 27 23 23
10 15 15 16 12 12 20 20 20 18 16 16 12 10 12 20 23 17 17 23 29 28 25 25 25 26 26 28 27 26 24 20 22 24 28 25 23 26 24 26 27 30 30 29
12 13 11 12 14 17 19 19 19 21 18 15 12 12 15 13 13 14 13 13 19 25 25 22 20 20 19 16 15 16 17 17 17 19 21 22 24 23 20 20 21 24 32 32
12 12 13 11 16 14 18 20 25 18 13 14 12 9 8 10 11 11 11 13 16 19 19 26 30 26 22 19 18 15 13 13 13 15 19 20 20 20 20 20 20 21 22 23
10 13 13 17 22 17 19 20 18 18 16 11 9 10 11 10 11 11 12 10 10 14 18 22 23 27 34 37 34 28 16 6 6 7 14 19 19 19 19 19 21 22 24 27

GFSCGP_700_spd_240.txt.gz
Wind_Speed
26 23 25 23 20 15 8 11 10 4 1 4 6 6 8 9 17 22 21 21 23 22 21 21 20 19 22 21 16 18 16 15 13 14 16 18 15 14 11 12 13 15 13 14
25 32 27 22 22 19 12 12 12 5 3 1 5 8 9 12 17 24 22 23 23 23 24 24 24 22 21 21 19 15 17 18 13 15 17 19 17 16 15 14 13 14 15 14
35 32 27 25 24 23 21 16 13 9 4 8 7 12 9 14 16 22 24 24 23 25 26 27 27 25 22 22 20 18 16 16 17 14 16 17 18 16 15 15 15 15 16 15
33 28 31 30 29 25 25 20 14 12 9 9 2 2 11 11 16 22 27 26 26 27 27 28 29 28 26 22 20 19 17 16 15 18 18 19 19 18 16 14 15 15 13 13
36 32 32 34 32 27 26 17 18 16 16 14 13 10 7 10 16 21 26 27 27 28 30 31 30 28 26 26 23 20 19 18 17 17 20 20 20 20 18 17 15 15 14 14
34 29 30 32 32 29 25 15 16 16 18 20 19 11 10 12 14 16 23 27 26 28 29 29 30 30 28 26 25 24 21 19 18 17 20 21 21 21 20 17 15 15 16 15
34 34 29 26 33 31 31 26 19 16 16 15 12 11 20 4 4 11 21 23 26 26 30 30 31 32 31 30 29 28 25 23 21 20 18 21 21 20 18 16 16 15 15 15
33 39 33 29 36 33 36 35 27 18 13 18 18 10 11 5 8 10 14 19 24 24 27 30 32 33 33 32 31 29 27 25 23 21 20 20 23 22 22 20 18 16 14 14
33 34 36 27 31 35 33 40 35 30 24 20 20 20 18 9 6 12 12 17 23 26 26 27 32 32 35 35 33 30 27 25 23 21 20 21 22 25 25 24 20 17 15 12
18 23 25 34 25 29 32 32 33 35 23 19 23 22 13 13 9 6 7 11 21 25 29 27 26 32 34 33 32 30 27 25 23 22 21 21 20 21 23 25 23 20 16 13
18 19 25 25 35 36 30 25 35 31 34 18 16 26 20 18 11 6 5 8 15 23 25 28 29 27 32 32 32 31 29 27 26 24 22 21 22 23 25 25 25 23 20 17
24 20 23 24 27 28 37 36 32 30 32 35 26 25 13 14 8 10 6 9 12 24 19 23 27 30 31 34 33 31 30 29 27 24 23 23 23 23 24 25 25 26 24 22
12 23 22 25 18 22 33 36 39 35 30 31 24 30 13 9 12 8 8 9 13 31 30 26 25 28 28 30 32 30 28 26 25 24 23 25 26 24 24 25 26 27 28 27
12 21 27 25 28 24 26 34 37 38 37 33 35 32 27 14 9 13 11 10 11 29 34 30 26 25 27 29 28 28 29 27 26 25 25 25 25 25 26 26 28 28 28 29
5 15 21 29 19 20 25 29 36 37 39 36 30 32 30 24 17 14 24 13 8 22 28 30 30 29 28 28 30 32 32 31 30 29 29 26 26 25 27 29 29 30 31 30
6 8 11 19 25 21 22 27 25 36 36 34 31 25 16 22 26 28 18 24 12 18 29 27 28 32 33 34 32 31 30 31 30 29 29 30 30 29 28 28 30 32 32 32
8 7 8 19 20 23 28 26 27 23 25 31 35 32 25 23 28 28 30 23 16 15 23 27 26 28 27 32 39 38 33 34 34 31 31 30 28 25 23 26 30 31 33 33
16 8 10 14 12 17 14 17 19 21 18 17 17 24 26 27 26 27 34 30 25 23 22 22 24 25 25 25 28 39 41 39 37 35 33 31 31 28 21 18 22 30 32 31
21 12 10 16 19 7 7 11 13 19 13 18 16 32 34 32 31 29 31 32 29 28 27 27 27 26 25 26 29 33 35 37 37 36 40 37 39 33 29 28 27 26 27 30
23 19 13 17 17 13 14 15 21 21 11 13 14 18 28 25 20 27 30 31 29 28 29 29 27 25 25 23 27 28 36 41 40 33 47 45 52 34 29 29 30 27 26 27
18 18 21 21 19 6 14 15 16 11 9 16 13 12 10 14 21 23 23 27 26 27 26 25 23 22 20 19 22 25 22 31 24 23 25 29 28 29 34 28 30 26 22 26
15 17 19 22 19 12 15 12 11 12 15 12 12 13 13 13 10 12 13 15 17 19 23 26 28 27 26 25 25 23 24 23 20 16 18 24 26 30 19 34 27 30 31 30
8 12 9 19 14 15 15 19 18 17 15 15 14 13 15 15 15 14 13 13 10 14 18 18 21 29 29 28 28 27 26 27 28 28 26 25 26 25 25 24 28 31 32 34
14 10 7 9 18 20 14 18 17 19 15 12 11 7 8 11 14 14 13 13 10 9 10 12 16 20 23 24 27 30 32 31 29 31 31 33 34 33 29 27 30 36 37 36
10 7 9 14 14 17 15 17 20 21 20 12 7 3 7 10 11 11 10 9 8 9 9 12 12 13 14 17 20 22 23 25 22 24 25 26 27 32 30 31 35 35 31 31
11 11 10 9 11 14 17 18 20 16 13 13 5 7 6 4 3 4 7 10 12 12 13 13 14 17 18 18 18 20 24 25 24 28 28 24 26 31 25 25 26 27 27 26

GFSCGP_700_spd_243.txt.gz
Wind_Speed
24 25 28 24 22 21 11 12 13 10 7 8 9 8 12 10 17 23 25 23 22 21 20 19 19 19 20 20 20 18 15 17 16 14 17 15 16 13 12 14 12 13 12 14
27 34 28 23 22 21 14 15 12 10 5 10 9 10 11 13 14 24 29 24 24 23 22 22 22 21 21 21 20 19 17 16 16 14 17 17 12 10 10 3 14 14 12 14
34 30 28 26 25 24 25 20 16 12 7 12 13 16 15 14 16 20 21 25 24 24 25 25 26 23 23 22 20 20 18 17 15 17 15 16 21 17 16 15 14 14 13 13
35 30 28 31 29 26 29 23 18 10 13 17 14 11 12 16 18 23 25 29 26 27 27 27 27 27 25 23 21 20 21 21 17 15 18 17 19 12 11 8 11 11 13 13
39 35 35 33 33 27 27 20 24 21 17 19 21 11 15 15 17 21 24 28 29 27 29 29 28 28 26 25 24 24 22 22 20 18 19 17 17 13 13 12 14 13 12 12
36 33 33 36 30 30 26 25 19 20 23 24 24 19 15 21 17 18 20 26 28 28 29 30 29 28 29 28 27 26 25 23 21 21 19 20 17 19 16 16 14 12 13 14
35 41 34 31 34 31 31 29 24 16 18 16 25 22 18 5 7 12 19 25 29 29 28 31 31 31 31 29 28 27 25 24 23 23 23 22 20 20 20 19 14 11 9 12
36 32 42 35 34 35 37 34 31 20 14 20 24 13 16 14 10 10 16 21 26 27 27 30 33 33 30 32 29 29 27 25 24 24 23 24 23 23 20 17 14 13 11 15
34 38 32 36 36 33 35 41 36 33 25 19 24 24 16 10 8 12 14 19 24 27 28 29 31 33 33 32 31 28 26 25 24 23 23 24 26 25 23 20 20 18 20 14
30 31 36 38 34 35 40 35 34 37 23 21 24 17 23 24 15 13 14 16 20 25 26 28 29 32 32 31 31 30 28 25 24 23 24 25 25 26 25 23 22 21 19 18
22 24 26 35 42 37 38 39 33 35 36 19 16 21 17 11 17 13 13 14 18 22 27 27 28 29 30 30 31 30 29 28 27 26 25 24 24 25 27 28 26 25 22 19
24 21 25 29 32 34 34 37 37 32 33 34 32 21 18 21 18 14 10 11 14 19 25 26 26 27 28 30 31 31 30 29 30 29 28 26 25 24 24 26 26 27 26 24
10 28 26 29 29 29 35 38 38 35 31 35 23 28 7 13 10 11 8 5 9 16 23 24 25 26 27 30 33 32 30 28 30 30 29 28 27 26 25 24 26 27 28 26
19 21 25 29 28 27 36 34 40 38 37 32 34 29 16 15 14 11 6 7 2 19 20 22 23 27 29 28 29 31 30 29 29 30 29 30 29 28 26 26 26 24 25 26
10 21 27 33 33 29 29 32 37 39 40 38 33 28 31 17 18 15 8 12 4 12 17 20 20 23 26 26 27 30 31 28 30 30 30 30 28 27 26 28 27 27 27 27
9 16 20 28 29 32 26 27 32 41 39 39 35 31 26 20 13 9 14 10 14 5 19 34 33 24 26 29 33 33 34 34 34 32 32 32 30 28 28 28 27 29 29 29
16 15 19 21 24 27 34 31 24 30 38 35 35 32 24 19 22 19 19 23 18 8 5 26 39 37 39 38 36 35 35 36 35 36 34 35 35 34 32 30 29 30 31 32
19 14 14 26 22 26 30 30 28 25 25 30 34 27 26 18 20 16 18 28 28 21 15 19 23 32 30 36 37 37 37 37 38 40 38 36 36 36 35 35 36 36 35 34
23 20 20 27 28 16 16 16 21 24 25 18 5 19 28 21 22 20 21 25 29 26 20 31 21 17 23 26 31 34 40 41 41 42 40 38 37 37 36 37 38 37 38 38
23 22 19 23 27 11 15 15 24 16 11 24 21 21 24 28 20 22 25 29 32 28 25 21 40 27 26 30 28 30 33 37 45 45 43 42 38 37 39 39 36 35 34 33
23 20 28 30 24 8 22 5 7 18 11 10 15 19 18 16 24 23 25 26 28 25 22 19 17 33 34 25 27 25 28 32 35 38 40 42 36 36 40 38 39 47 38 32
22 21 27 33 30 23 11 17 10 12 17 18 15 16 12 11 13 10 11 16 18 18 17 19 19 20 22 26 22 20 21 19 19 28 34 34 32 30 34 46 37 47 48 28
10 8 9 14 20 10 10 19 11 13 9 10 14 13 12 11 9 10 6 7 8 11 9 11 11 13 19 23 25 25 22 20 21 22 24 27 26 27 27 26 27 22 19 28
12 10 7 8 27 28 16 12 15 12 14 11 7 6 7 11 9 6 5 6 5 4 6 8 9 10 10 11 15 19 20 21 23 22 25 25 26 24 23 23 21 23 24 25
12 12 11 11 14 17 27 15 14 19 17 11 5 5 5 5 2 3 4 5 7 7 8 7 9 8 8 10 12 14 14 15 17 20 22 26 31 33 32 29 27 28 28 28
8 13 11 9 13 12 17 18 18 14 14 7 7 9 8 6 6 4 6 7 7 6 7 9 11 10 10 9 10 11 12 14 17 19 20 24 25 22 25 33 36 34 34 31

GFSCGP_700_spd_249.txt.gz
Wind_Speed
17 19 22 21 14 18 20 19 10 9 11 16 14 23 19 19 22 17 16 28 26 23 25 21 18 18 16 15 17 15 16 18 17 15 15 19 20 20 20 17 15 13 11 11
17 26 24 18 21 23 25 20 19 17 16 19 16 28 21 21 19 15 20 24 28 24 24 22 21 20 14 16 19 16 17 20 17 16 20 20 18 19 16 15 14 14 11 9
22 19 18 21 22 26 26 25 22 12 14 19 18 20 19 24 15 27 23 21 26 29 27 25 23 22 17 17 19 18 18 21 19 16 22 20 20 17 18 15 13 16 14 11
24 22 25 27 29 23 31 23 24 19 9 21 21 18 32 27 25 35 26 27 30 30 30 27 24 23 19 20 21 19 18 21 21 20 20 18 16 14 15 13 12 15 13 13
26 24 27 31 30 27 28 29 29 20 14 23 24 17 26 34 36 39 33 20 32 32 34 31 26 23 21 19 21 21 22 22 22 19 21 19 17 17 14 12 12 14 15 12
24 27 28 30 30 29 28 31 31 29 15 15 28 28 28 36 37 40 28 21 17 35 36 33 29 24 25 22 22 23 23 23 24 23 24 24 20 23 21 17 18 14 14 13
23 26 30 27 33 32 32 32 23 14 12 5 23 26 33 24 33 33 30 27 22 31 41 36 35 30 24 26 23 24 24 24 24 22 23 23 23 20 18 16 16 15 14 13
26 27 26 25 32 34 36 30 24 10 7 11 27 18 38 27 25 29 30 26 26 29 43 41 35 33 23 26 25 24 24 24 25 24 20 23 24 23 20 19 13 14 13 14
17 23 21 32 32 32 39 41 34 33 35 21 23 21 31 28 22 26 28 33 29 26 35 43 36 32 29 22 27 24 25 24 24 22 21 24 26 24 21 18 18 15 16 15
27 25 22 24 30 35 39 40 31 32 11 14 17 19 18 22 28 28 29 38 29 28 29 32 25 29 28 21 19 26 26 27 24 24 22 23 23 24 22 20 19 19 18 16
20 19 26 25 23 26 26 39 42 32 27 10 6 16 27 31 26 26 29 34 34 28 26 30 29 27 26 22 16 20 26 29 28 27 25 25 26 26 26 22 21 19 22 20
16 18 21 32 31 24 27 31 39 32 27 27 20 38 30 17 12 29 15 28 32 24 25 30 30 23 24 27 19 12 10 27 30 29 27 25 24 26 26 25 23 23 23 23
21 11 20 23 29 21 19 20 19 33 35 37 16 20 18 23 17 21 14 34 30 29 30 34 28 32 27 25 24 16 11 18 28 29 29 27 26 26 27 25 25 25 27 26
15 24 16 24 35 38 41 38 30 24 30 33 36 36 22 20 23 15 14 25 26 34 48 35 33 31 25 25 26 20 15 11 19 29 29 26 25 25 25 24 23 23 24 27
11 21 22 25 36 31 29 29 31 26 20 28 32 22 26 30 27 35 38 25 21 22 36 39 39 38 31 23 21 21 17 13 12 17 23 26 24 25 25 26 25 24 24 24
17 23 23 24 31 25 29 32 28 25 22 26 32 21 10 17 33 40 36 42 19 14 30 42 42 38 39 30 26 23 20 19 15 16 16 16 21 24 24 25 26 26 26 26
24 20 20 30 27 26 22 19 21 26 20 29 31 22 15 24 28 26 15 20 34 10 18 35 41 39 40 19 42 32 27 24 23 22 21 22 22 24 25 26 27 28 27 28
26 24 22 31 27 13 17 21 24 22 14 22 14 22 30 26 31 22 10 5 16 20 15 20 23 26 29 38 40 37 34 33 32 30 31 29 26 25 27 28 29 28 28 28
37 26 26 28 23 23 29 19 18 20 11 9 5 24 22 24 25 20 19 21 26 26 15 15 24 24 26 29 32 31 30 30 31 31 32 33 30 27 29 32 31 31 31 30
7 28 25 26 16 12 20 19 20 25 13 4 4 4 19 23 22 25 27 30 26 26 17 13 11 20 27 30 29 27 28 34 22 27 30 30 30 30 32 30 33 35 35 34
13 19 23 31 25 20 14 18 23 16 11 5 6 10 23 23 21 19 19 20 19 17 20 18 14 12 15 19 20 23 25 32 36 23 28 25 25 29 29 32 38 39 38 37
14 12 22 16 26 20 15 15 10 9 14 10 15 8 8 14 14 19 20 18 17 18 18 18 19 19 17 21 24 26 23 26 30 34 21 17 22 23 26 29 30 32 25 33
11 11 17 9 7 13 9 6 6 8 18 14 6 6 6 8 11 13 11 12 14 15 17 18 19 20 21 18 22 29 30 33 29 28 37 27 11 13 21 25 26 27 27 25
15 12 20 27 20 20 14 10 7 6 12 12 6 6 6 3 4 12 9 7 7 5 3 4 8 12 15 17 19 26 25 26 32 33 34 32 37 34 29 23 21 24 23 21
20 18 9 15 24 18 9 15 11 5 9 10 6 10 6 4 8 9 11 11 8 5 2 2 1 2 4 7 12 21 21 22 24 25 25 25 32 30 30 32 23 25 25 21
19 12 13 10 9 23 13 18 15 11 6 8 9 1 3 3 4 2 3 5 5 3 1 4 5 3 2 3 6 7 10 13 13 16 20 21 23 24 25 28 28 26 22 23

GFSCGP_700_spd_252.txt.gz
Wind_Speed
11 12 16 16 15 15 19 21 22 18 3 11 16 19 23 20 20 19 22 23 22 22 18 16 15 12 14 19 20 19 18 19 21 18 19 22 24 27 26 23 20 16 15 15
15 19 17 14 15 15 19 23 22 20 9 18 14 21 21 27 23 14 15 24 26 26 24 23 19 16 14 19 21 23 21 20 18 17 18 21 21 21 21 21 19 18 16 15
18 16 11 14 17 20 19 20 21 20 14 20 15 18 28 30 29 23 21 17 25 28 28 26 22 18 17 21 22 23 24 24 22 20 21 22 25 24 22 20 18 17 16 15
11 14 16 18 22 19 26 17 25 24 16 16 14 13 24 28 37 34 25 27 26 31 30 27 24 20 18 20 21 21 25 26 24 24 25 24 23 22 17 16 15 16 15 13
13 15 16 22 23 22 27 23 29 28 25 25 25 8 27 29 40 42 31 30 29 29 30 31 27 21 18 22 22 20 23 27 27 24 23 24 20 19 19 19 17 15 15 13
13 13 18 22 25 25 24 29 31 29 23 19 29 24 35 24 31 39 35 32 27 28 29 29 26 22 21 22 25 25 24 24 26 25 25 23 22 22 22 20 16 17 18 15
12 14 14 13 20 30 26 24 14 7 5 8 22 26 28 15 18 32 29 31 30 27 25 30 33 29 25 24 24 26 27 26 25 24 25 25 25 25 23 20 15 17 19 16
13 12 13 12 15 22 27 26 14 5 3 12 23 18 38 28 28 34 33 28 33 30 22 25 30 28 25 23 23 26 28 28 27 25 25 24 27 25 24 22 21 23 20 15
12 14 23 17 19 15 28 29 26 28 33 20 26 36 34 30 30 27 33 31 36 32 29 26 29 31 28 24 21 25 27 28 28 27 25 25 29 27 25 23 21 20 18 15
16 20 18 26 27 22 17 20 18 13 5 12 13 25 23 18 24 22 30 35 31 32 30 28 30 32 28 23 19 18 26 27 26 27 28 26 26 24 21 19 21 22 19 20
22 15 23 23 25 25 22 21 21 23 19 11 11 20 34 32 23 14 37 32 28 29 31 26 23 28 27 23 22 19 21 28 28 27 28 29 28 27 25 22 19 18 19 18
16 15 20 25 23 27 26 26 19 19 14 23 25 27 17 23 25 15 20 18 40 32 29 25 22 23 30 25 23 19 15 26 29 27 27 27 26 25 26 25 22 21 20 18
12 9 20 25 15 14 12 19 23 25 21 25 16 33 25 8 22 28 32 17 25 47 42 39 31 27 28 23 19 18 15 14 29 30 28 27 28 28 27 26 25 24 24 24
13 12 10 13 20 24 26 29 25 24 23 30 30 28 37 34 20 19 30 36 36 33 44 43 42 36 28 29 22 16 15 12 19 32 32 30 28 27 25 24 24 25 26 28
16 20 19 21 25 25 21 27 24 26 27 26 28 29 26 38 32 22 22 26 27 35 46 42 40 40 50 32 28 22 19 15 13 27 33 30 28 28 27 27 26 25 26 27
25 24 24 32 28 28 28 27 24 26 28 25 18 13 12 25 33 33 33 31 27 28 42 41 44 46 41 37 31 29 26 22 16 16 22 25 27 28 29 28 27 27 26 26
21 17 19 29 26 26 28 16 13 15 16 22 17 10 11 18 22 27 32 27 30 33 35 39 41 51 50 37 38 27 26 27 23 17 14 16 18 21 24 27 28 29 29 28
24 28 28 32 23 8 23 15 17 17 21 12 7 10 14 23 19 20 22 16 7 13 26 27 27 63 59 53 38 34 36 30 26 24 21 19 19 20 22 24 28 30 30 29
8 16 29 24 23 29 31 25 18 11 17 27 8 13 24 23 22 19 17 20 18 11 17 25 35 30 60 58 50 40 44 38 32 32 31 28 26 28 29 28 29 30 31 31
15 20 13 15 7 4 4 6 11 7 23 21 16 3 18 22 25 26 25 23 19 27 22 15 15 15 23 29 37 31 32 39 36 43 36 36 32 32 34 34 32 31 33 33
22 16 15 17 13 22 17 12 5 9 19 28 22 16 8 9 17 23 26 25 22 23 19 16 15 13 24 24 24 22 27 30 26 16 24 33 31 31 29 33 31 31 31 33
17 8 15 13 11 14 23 16 8 3 9 32 19 22 12 7 7 13 17 19 19 16 12 12 13 16 15 16 17 17 15 13 21 31 30 31 22 27 25 24 20 23 27 29
10 13 18 13 8 9 6 7 9 9 9 7 26 19 9 9 9 10 14 15 15 14 12 11 13 15 17 20 21 22 20 21 22 23 24 20 13 11 9 9 20 20 25 24
25 21 23 22 11 16 12 8 12 8 7 4 10 18 17 9 12 13 10 8 8 9 10 11 12 13 14 16 18 21 24 27 26 29 31 31 27 27 26 30 34 35 30 17
24 19 19 23 13 13 17 10 14 7 7 3 0 6 13 10 7 12 11 6 4 3 6 6 9 13 15 13 12 13 15 17 19 19 22 27 31 30 30 30 27 27 24 19
14 12 15 15 9 7 11 14 19 11 11 10 9 5 10 7 12 9 9 0 1 0 3 5 1 4 6 9 12 11 11 12 11 11 12 14 19 22 24 26 26 27 28 25

GFSCGP_700_spd_258.txt.gz
Wind_Speed
15 14 13 9 6 5 7 6 7 9 10 13 18 17 17 15 14 12 10 10 12 12 12 18 18 17 16 17 17 17 19 17 21 17 17 21 22 24 25 25 24 22 20 18
15 11 11 9 8 9 9 11 11 6 6 14 11 12 13 17 14 12 10 11 10 13 17 18 21 21 20 17 17 18 19 20 20 17 17 18 22 24 25 26 25 22 20 17
10 7 7 9 11 11 11 9 10 13 15 10 10 13 16 14 12 16 17 14 17 15 16 18 20 21 20 21 20 19 18 18 19 18 21 22 24 27 28 27 25 22 20 18
5 9 11 12 13 13 13 10 13 14 14 7 14 7 13 14 12 13 13 19 21 20 18 20 20 21 22 20 20 20 20 20 20 20 21 22 22 24 24 24 23 22 21 18
5 3 4 3 4 10 11 13 15 16 17 16 17 7 8 12 15 16 16 19 20 21 23 21 18 21 17 18 20 21 22 23 22 22 22 22 24 24 24 24 24 22 21 19
2 1 3 4 6 8 10 11 12 19 17 10 19 13 14 12 18 15 16 18 20 25 25 25 19 19 22 19 20 22 25 25 25 24 24 23 24 26 26 26 25 23 22 20
3 3 1 5 6 5 12 8 2 3 4 6 14 12 23 18 13 19 21 23 19 21 27 29 27 24 27 27 23 24 27 28 27 27 26 25 25 28 28 27 25 23 23 21
3 2 1 11 12 13 6 9 4 3 3 6 13 10 10 14 20 19 17 19 22 23 21 22 28 27 26 29 27 25 27 29 29 28 26 25 25 27 28 28 24 23 22 21
4 2 7 12 9 10 4 3 9 9 16 9 9 25 34 25 23 22 24 23 18 21 24 25 22 28 25 30 31 28 25 26 28 27 25 26 26 28 29 27 25 24 21 20
4 9 9 13 13 3 8 7 3 3 2 4 7 12 12 16 22 19 18 18 25 28 27 24 23 26 25 28 30 29 26 23 23 28 27 25 27 28 31 31 29 28 25 22
12 5 7 13 9 14 6 4 2 4 6 4 3 8 2 10 17 25 21 18 18 22 24 24 23 23 28 24 28 31 29 25 23 24 27 27 26 27 29 32 31 27 27 26
7 6 5 12 6 10 14 5 9 3 5 10 11 22 21 16 20 24 28 22 16 19 22 23 24 26 29 27 28 30 29 28 25 20 23 26 26 27 28 29 30 29 26 27
15 3 5 7 3 9 6 10 12 11 11 12 8 14 15 25 28 23 26 31 19 18 21 17 25 26 25 27 26 29 30 29 26 25 22 25 26 29 30 30 28 27 26 25
18 12 14 12 15 19 22 20 18 16 13 21 31 44 36 27 29 29 29 27 30 16 27 22 17 17 22 23 26 28 32 30 28 28 28 23 26 27 29 29 27 25 26 27
8 15 19 20 20 23 27 26 23 26 27 27 33 40 36 35 34 25 33 31 27 24 26 29 24 20 23 25 28 28 30 31 30 30 32 29 23 26 29 29 28 26 26 27
17 13 13 20 18 16 18 18 25 30 29 32 34 36 32 35 34 37 33 33 26 24 24 27 24 23 30 21 30 29 32 34 31 29 29 30 27 22 28 29 28 27 26 25
13 8 9 12 19 20 18 18 20 24 30 26 28 30 32 35 32 34 40 30 26 25 25 22 22 20 23 19 24 30 35 37 34 33 31 32 33 25 24 29 29 28 27 25
11 11 11 11 13 4 10 9 14 20 22 26 31 28 30 33 36 32 38 32 27 32 31 31 23 21 27 26 21 33 41 39 38 41 37 36 38 36 25 28 30 29 29 29
7 6 6 6 10 18 28 21 18 29 37 29 31 30 31 35 34 33 33 32 27 31 32 32 29 24 21 25 21 23 31 42 41 37 37 30 22 29 29 31 31 30 31 31
10 13 16 16 9 6 11 8 10 15 34 22 24 32 36 32 30 32 32 32 27 29 36 32 25 21 20 18 16 21 28 53 27 32 36 38 32 35 36 34 35 36 34 32
14 14 15 15 13 18 18 21 21 23 28 24 21 19 24 25 30 28 13 24 25 22 22 18 19 21 19 19 19 20 31 43 43 42 40 37 31 27 34 35 37 38 34 36
12 11 12 11 9 13 14 15 13 22 22 20 25 23 24 32 39 38 12 17 26 32 30 21 18 19 18 18 17 22 15 39 50 27 35 46 13 23 27 19 6 32 31 23
10 18 23 20 26 34 37 35 33 34 28 21 27 25 28 30 29 39 41 19 24 26 26 18 20 17 19 19 10 23 26 27 17 17 3 23 3 2 18 13 3 16 10 19
22 20 24 31 36 29 20 20 24 27 27 21 20 22 24 22 11 37 29 15 12 13 14 13 9 12 12 12 13 13 10 11 18 10 32 6 7 6 10 12 5 13 21 17
14 17 21 26 20 15 11 14 19 22 25 21 19 20 20 14 12 11 18 13 16 14 12 16 13 8 11 11 10 12 11 9 7 6 7 3 5 11 13 14 17 15 16 13
17 16 18 21 22 22 21 19 20 18 17 16 16 18 17 20 12 12 21 4 11 22 19 18 18 16 11 8 9 10 2 3 4 8 14 14 19 17 17 18 19 23 24 21

GFSCGP_700_spd_261.txt.gz
Wind_Speed
13 9 7 7 6 6 5 4 5 7 5 9 9 8 7 8 10 7 6 7 6 8 13 16 17 16 15 15 13 13 14 16 19 18 16 20 23 24 23 23 23 22 21 19
14 8 8 8 7 7 9 10 10 7 6 13 11 10 6 8 5 8 7 4 4 7 14 18 21 21 19 16 14 14 15 16 16 18 15 19 21 23 24 24 23 22 20 18
9 8 8 6 10 8 9 11 10 10 13 9 11 11 6 7 7 8 7 9 9 8 9 15 20 22 22 22 19 16 16 16 16 15 18 22 23 24 26 26 24 22 19 16
6 6 5 7 6 8 6 8 13 14 12 7 8 7 10 7 7 9 6 8 7 10 12 12 18 21 24 22 22 21 20 19 19 19 20 21 21 23 23 24 23 22 20 17
8 3 3 4 3 3 5 8 11 14 13 14 13 8 9 5 9 12 8 7 10 10 12 14 14 19 21 23 24 23 22 22 21 21 21 21 21 21 23 24 24 23 22 20
6 4 4 3 1 2 7 8 8 11 13 17 18 14 15 14 10 6 6 11 12 12 15 18 20 17 21 24 25 26 26 25 24 24 22 22 21 21 23 23 24 24 22 21
5 5 5 2 1 1 4 5 4 5 8 14 14 13 18 12 9 10 13 13 15 14 14 16 21 23 22 29 29 29 28 28 27 26 25 24 23 23 23 23 23 24 23 22
4 5 3 2 5 5 1 1 1 4 4 5 4 9 8 10 11 14 14 12 15 13 14 15 15 20 26 27 32 32 30 29 29 28 27 26 25 25 26 27 26 26 24 23
1 2 4 9 6 5 3 3 5 5 11 7 9 12 15 14 19 20 20 17 12 14 17 16 15 16 24 28 32 35 33 30 29 28 27 27 27 27 26 27 29 28 26 25
3 5 8 5 5 3 6 8 3 5 4 5 6 8 11 15 19 23 24 23 18 13 19 21 18 17 21 29 28 32 34 32 28 27 27 26 26 27 27 28 30 30 26 26
6 3 4 7 4 6 3 6 8 8 5 4 5 7 10 13 15 19 23 25 24 17 17 19 18 18 23 28 32 30 34 34 31 29 27 26 25 25 28 30 31 31 28 27
0 4 5 6 3 3 12 6 5 5 5 7 7 16 19 24 28 24 22 23 22 24 20 19 16 16 24 28 31 31 35 38 35 29 25 25 25 26 27 30 31 31 31 28
11 3 3 4 6 12 8 6 6 6 9 14 11 10 11 13 19 26 30 29 28 28 27 22 16 9 21 26 30 31 33 36 36 31 27 23 22 25 29 30 31 32 32 32
14 11 12 12 6 8 14 17 15 11 13 20 31 38 33 38 38 37 32 30 35 36 29 24 22 11 13 20 25 31 32 34 36 34 31 28 25 20 24 28 31 32 32 32
7 10 15 17 19 21 24 23 22 22 25 25 29 37 35 33 35 32 30 29 30 31 36 27 27 21 14 18 26 33 33 35 36 38 35 32 28 26 22 25 30 33 34 32
16 11 13 16 16 18 24 22 25 25 27 35 35 45 36 36 33 29 30 31 32 34 35 33 29 24 22 19 20 19 30 34 37 40 39 34 33 32 28 24 26 30 33 34
13 8 6 8 12 10 15 23 17 19 20 26 28 31 26 31 33 33 31 31 33 37 34 30 25 21 23 23 16 16 18 24 32 39 41 39 38 37 35 31 26 28 30 33
7 8 9 8 10 8 6 8 11 21 28 24 29 32 31 35 36 35 32 31 31 33 32 25 25 24 22 22 21 28 20 23 35 31 35 36 38 39 39 39 33 29 30 32
6 4 5 6 10 20 24 19 17 18 21 19 32 35 39 33 37 35 33 30 32 36 29 24 31 29 26 28 25 18 21 20 32 45 39 36 37 40 40 39 37 34 34 35
9 9 10 11 10 9 10 12 16 20 23 18 20 19 23 27 32 31 25 25 31 37 33 23 28 36 34 32 31 27 20 26 28 24 47 36 33 41 39 38 43 41 38 40
8 12 11 12 12 15 17 21 20 16 15 18 21 26 29 29 28 28 29 28 33 34 25 22 25 36 34 31 30 30 27 28 28 35 36 41 26 36 42 44 46 45 42 42
7 6 8 6 8 11 14 19 18 24 29 40 30 25 29 32 30 32 38 36 38 33 29 23 30 22 32 33 26 30 31 32 26 30 29 45 32 30 30 39 44 37 39 40
7 10 14 11 15 26 32 37 43 45 46 42 41 27 31 33 33 35 36 37 40 35 35 28 34 28 26 25 27 30 22 19 19 20 25 19 27 36 20 25 21 18 27 32
15 15 18 20 19 23 24 22 23 25 29 28 29 28 27 29 30 33 30 30 28 26 35 27 34 35 22 24 20 21 22 23 20 13 18 25 27 24 23 34 23 20 26 12
12 16 18 23 19 24 23 25 32 28 27 24 20 24 26 27 28 26 25 24 19 17 16 16 25 23 33 22 19 17 14 11 9 6 3 3 9 16 17 18 14 18 19 17
12 15 18 20 19 21 26 32 27 17 18 13 15 16 21 25 25 21 21 13 22 4 6 20 27 21 16 10 14 15 12 11 9 9 7 5 4 7 12 16 13 10 10 13

GFSCGP_700_spd_264.txt.gz
Wind_Speed
8 8 10 6 3 4 2 4 4 4 7 7 5 4 4 5 6 9 9 9 6 7 9 11 12 13 14 15 16 17 13 16 20 22 23 23 23 22 22 22 22 20 19 18
9 12 10 6 5 6 6 8 9 8 4 8 8 6 4 7 2 5 7 10 7 9 12 11 14 15 14 13 14 16 17 16 19 19 18 21 24 24 23 23 23 21 19 18
10 8 9 8 8 9 10 12 10 9 11 12 12 11 5 6 4 3 8 12 12 12 13 12 12 15 16 16 15 15 15 17 20 20 19 21 24 24 25 25 23 22 21 19
9 7 7 7 10 8 12 7 10 12 12 12 3 9 3 7 7 7 4 6 11 14 15 16 15 15 15 16 17 16 16 17 17 21 18 20 21 21 23 24 24 24 23 21
7 4 5 6 8 6 9 9 10 13 15 17 17 12 12 8 10 9 10 10 7 11 15 18 18 16 15 17 20 21 20 20 20 21 19 20 20 21 24 25 26 25 24 21
7 6 3 5 5 8 8 10 12 13 15 21 22 22 17 13 9 5 3 5 8 13 14 15 19 21 18 20 22 24 25 23 23 22 22 22 21 20 22 24 24 24 23 22
4 4 5 4 4 5 6 10 12 10 11 13 12 15 17 6 7 7 4 1 3 4 13 16 18 21 24 25 26 27 28 28 26 25 23 23 23 22 23 23 24 24 23 22
8 7 5 4 2 4 6 6 10 7 9 4 2 8 12 13 6 8 9 9 8 8 8 8 17 21 20 29 30 31 30 30 31 29 27 26 25 25 25 25 25 25 24 23
4 6 7 9 7 4 3 6 4 11 14 13 14 10 10 9 6 1 3 10 14 10 9 10 11 17 24 24 33 34 34 31 33 31 30 29 27 27 27 27 27 27 26 26
4 6 6 9 8 8 8 7 7 9 5 8 6 8 14 17 7 6 7 10 18 18 14 12 12 16 22 23 30 36 37 35 33 33 31 31 29 28 28 28 28 30 28 27
3 5 3 4 7 8 8 9 11 11 11 9 8 5 6 6 7 12 13 16 21 23 24 19 14 14 19 23 28 36 38 38 37 35 35 32 32 31 30 30 30 31 32 31
3 5 10 9 10 11 12 11 12 16 10 14 15 22 8 6 8 15 21 22 23 27 22 23 19 13 16 23 28 35 39 39 39 37 37 34 31 30 31 32 33 32 32 33
4 5 9 7 7 7 10 12 11 13 14 18 18 13 6 6 18 21 24 27 29 35 35 28 23 16 17 19 23 31 41 40 39 39 37 34 33 32 32 30 30 34 33 34
9 10 15 18 12 7 14 15 15 16 19 20 30 27 27 28 26 26 26 26 26 26 31 37 34 26 21 19 20 24 35 42 40 40 39 39 36 33 31 30 31 32 34 34
6 12 14 17 18 18 20 22 24 26 26 29 33 33 29 28 31 30 25 24 26 29 25 30 31 32 26 22 22 24 33 41 43 42 43 42 38 33 29 26 26 31 34 35
9 12 12 17 17 19 24 24 25 28 29 33 32 38 29 27 23 24 24 23 25 26 31 26 31 28 31 26 23 28 29 31 40 45 44 43 42 39 36 32 28 26 30 35
11 9 10 15 8 12 17 21 23 26 25 26 30 29 27 28 26 26 26 26 27 27 30 31 30 30 25 27 24 24 28 24 31 40 45 47 46 44 41 39 38 35 30 31
7 7 10 14 12 15 6 7 10 15 18 22 29 27 26 22 24 24 25 27 26 29 30 33 30 32 26 24 25 23 23 22 40 47 39 47 50 50 48 46 45 42 39 35
6 6 11 11 16 19 24 9 11 15 23 21 24 22 20 23 31 25 20 25 28 30 31 35 34 28 27 29 26 22 28 34 25 26 32 38 43 52 51 48 50 47 45 42
6 7 9 14 18 13 8 12 14 17 31 20 29 31 24 25 25 21 24 29 29 26 31 34 37 31 30 32 28 31 27 28 30 32 39 38 42 46 50 52 56 52 50 49
7 8 13 14 18 18 14 11 14 16 17 23 27 32 33 31 30 39 35 33 32 32 32 35 38 33 32 32 32 29 32 34 33 31 32 28 32 40 43 41 42 44 44 53
7 7 12 11 14 14 10 21 20 28 34 35 40 46 46 42 39 39 38 36 38 37 37 36 39 37 33 29 29 29 32 35 37 32 33 36 37 34 35 46 56 63 34 39
6 8 13 11 14 20 23 21 25 29 29 32 33 29 29 34 41 35 37 35 37 39 39 37 37 38 32 33 22 31 30 31 31 33 37 32 28 33 30 29 36 36 43 40
11 13 13 15 10 19 22 23 24 32 37 32 27 28 27 30 28 30 31 32 34 38 37 40 32 30 33 31 25 24 32 28 24 22 21 19 21 22 22 20 24 23 27 30
11 17 13 16 17 20 16 23 30 32 20 20 16 20 20 20 21 22 23 30 33 37 36 27 29 31 32 34 37 31 30 24 21 20 16 16 18 18 18 20 18 17 17 24
10 8 11 18 19 19 21 24 33 15 14 12 12 16 21 25 26 29 34 32 33 23 9 5 9 15 25 18 32 15 13 18 20 19 15 11 6 8 13 13 11 11 5 13

GFSCGP_700_spd_270.txt.gz
Wind_Speed
7 8 10 7 4 4 4 4 0 8 5 4 1 4 14 16 15 16 14 16 16 16 15 14 12 11 14 13 12 14 14 15 14 16 19 21 19 19 18 17 18 17 16 15
8 11 8 4 2 2 6 8 8 6 2 6 5 7 11 15 17 16 15 16 16 16 17 17 12 12 11 8 8 12 11 11 11 16 19 20 19 19 19 19 20 15 16 16
11 3 1 4 6 9 9 11 13 7 0 7 10 9 8 19 14 17 15 16 16 18 19 18 14 13 13 9 8 8 10 8 9 13 18 21 20 21 20 21 20 18 18 17
10 5 2 5 7 8 10 6 7 5 10 16 8 9 8 20 17 16 19 21 21 19 18 20 16 11 12 10 9 9 10 11 14 14 16 17 17 19 18 17 18 20 20 19
6 3 4 4 8 4 8 9 7 10 14 14 14 12 10 16 17 20 19 22 20 20 17 19 17 12 9 14 10 10 11 10 13 16 17 15 16 17 20 21 21 21 22 22
7 3 3 4 4 6 10 13 14 15 15 17 16 15 17 15 10 20 12 13 17 18 18 18 16 15 16 14 17 14 12 14 13 14 19 20 19 18 19 21 23 23 22 22
8 7 4 3 5 6 6 9 16 12 11 13 16 14 5 15 14 17 15 15 14 14 6 4 15 18 15 19 18 21 19 14 17 17 19 18 18 18 18 21 22 24 23 24
8 11 5 3 0 3 1 6 8 7 8 13 8 4 16 16 17 17 15 14 11 11 8 12 9 5 17 19 21 22 26 24 18 22 20 21 21 22 22 22 20 22 23 24
6 5 3 2 4 3 3 3 11 10 15 13 10 20 18 19 17 14 11 8 8 8 7 8 4 1 6 15 20 27 31 34 27 23 24 24 24 23 25 25 23 22 23 25
5 6 5 5 5 7 8 10 8 8 4 6 14 11 8 26 20 14 10 6 4 6 6 6 6 7 16 19 22 18 31 38 39 33 27 27 27 27 25 25 27 26 25 25
5 6 4 3 11 6 7 5 6 12 13 12 10 10 21 23 15 11 5 3 2 4 6 7 10 12 19 22 29 27 22 24 36 37 33 29 30 29 30 29 28 28 27 27
2 5 13 14 5 7 10 13 12 15 11 14 16 20 12 13 10 5 3 3 6 5 6 9 11 23 27 24 16 17 26 26 34 37 40 32 31 31 31 33 32 31 30 30
2 4 12 14 14 12 5 7 10 14 17 22 18 9 13 0 3 2 4 8 13 10 9 10 13 22 27 33 32 20 19 16 34 40 42 39 34 34 34 33 33 35 33 32
10 6 9 15 21 15 13 13 11 12 16 18 22 24 25 11 14 14 17 18 17 12 14 14 22 25 29 26 29 31 27 24 29 32 38 40 37 36 37 36 35 34 36 36
3 8 10 13 17 18 18 18 20 21 21 23 25 28 28 30 29 22 19 13 12 14 15 18 25 34 30 24 26 24 30 31 34 36 35 39 39 40 37 41 40 38 35 37
5 13 13 15 16 17 19 18 18 22 23 25 26 28 25 24 21 20 20 18 17 14 13 14 26 37 36 30 27 28 23 29 32 36 44 42 39 43 40 42 45 42 40 36
11 12 13 19 16 17 17 14 14 14 13 12 16 15 16 18 21 21 24 24 23 26 33 35 31 41 38 37 31 30 29 26 30 34 38 48 49 42 41 41 44 47 44 38
11 11 11 16 14 14 13 7 10 11 10 13 19 23 23 20 21 21 23 26 25 27 34 33 35 35 40 39 35 31 33 30 29 30 34 41 52 54 44 41 43 45 47 44
6 9 12 15 17 17 14 9 3 5 10 17 18 18 22 23 25 25 22 23 24 28 32 37 40 41 41 43 37 31 34 34 31 30 31 35 44 49 56 52 42 44 48 48
5 8 8 12 14 12 3 5 6 8 16 11 15 20 24 27 29 30 31 36 37 41 41 38 45 49 46 45 40 35 37 35 33 30 30 32 36 43 45 46 55 48 42 41
6 7 12 15 18 13 3 7 11 12 14 23 23 26 36 36 36 47 46 47 43 41 45 45 42 43 45 44 40 39 40 37 35 32 30 31 36 37 37 41 49 51 46 45
9 11 15 18 19 8 12 12 11 17 26 34 40 43 48 47 49 42 38 37 30 33 37 36 38 44 47 42 36 39 40 39 36 34 32 33 34 36 35 32 30 30 40 53
9 10 11 9 12 17 13 14 18 24 33 37 40 39 41 37 35 36 33 33 32 31 34 36 38 45 39 36 38 41 39 39 39 33 32 34 36 35 35 34 33 34 33 35
8 11 12 11 12 16 12 13 16 29 36 38 36 35 38 39 41 42 41 38 34 31 27 32 33 32 34 37 40 42 40 36 38 33 31 32 35 38 36 33 32 31 31 32
12 12 14 17 18 18 15 13 21 32 32 29 31 32 36 39 45 45 41 41 41 40 37 37 39 40 40 42 39 40 39 36 34 32 29 29 33 37 38 39 39 36 35 37
8 9 14 17 15 11 15 17 29 30 27 29 28 28 32 37 31 29 30 31 28 31 25 27 26 22 26 25 28 28 24 26 25 23 25 24 24 29 36 37 35 33 35 34